Погода в Острове

Россия / Ярославская область     57°17′54″N   40°21′43″E
темп.,
°C
ветер,
м/с
пор.,
м/с
влажн.,
%
обл.,
%
осадки,
мм/ч
давл.,
гПа
погр.,
м
6 марта, сб
сб600:00−15з33890 0.0 101322
03:00−15зюз349311 0.0 101462
06:00−15зсз339849 0.0 101434
09:00−14зсз249558 0.0 1015145
12:00−9зсз238580 0.0 1015421
15:00−8з358689 0.1 1014724
18:00−11зюз239298 0.1 101321
21:00−14зюз339350 0.1 101225
7 марта, вс
вс700:00−15ююз46940 0.0 101086
03:00−14ю5109218 0.0 1006204
06:00−10ю61488100 0.0 1001534
09:00−8ююз81393100 0.8 997764
12:00−5ю81393100 1.0 992885
15:00−3ююз71295100 2.7 989826
18:00−7з91593100 2.4 988905
21:00−9зюз71581100 2.8 990773
8 марта, пн
пн800:00−8з81390100 1.1 990816
03:00−11з71388100 1.1 991419
06:00−11з61194100 0.4 992436
09:00−10сз5994100 0.8 995500
12:00−9ссз5889100 0.3 998738
15:00−9ссз6890100 0.4 1002870
18:00−11ссз51092100 0.2 1005446
21:00−14ссз4109399 0.2 1009268
9 марта, вт
вт900:00−18ссз369797 0.1 101199
03:00−21ссз3410085 0.1 101357
06:00−23ссз349973 0.0 101566
09:00−22ссз359664 0.0 1017242
12:00−18ссз358775 0.0 1017447
15:00−16сз468788 0.0 1018581
18:00−20сз3596100 0.0 101970
21:00−24ссз349998 0.1 102249
10 марта, ср
ср1000:00−26ссз239930 0.0 102319
03:00−27ссз229915 0.0 102419
06:00−27ссз12980 0.0 102419
09:00−23с12930 0.0 1025115
12:00−17св11830 0.0 1025320
15:00−15св11790 0.0 1025407
18:00−20св129140 0.0 102520
21:00−22в119257 0.0 102620